User: anonymous   Login
Location: Azul
(36.7830°S, 59.8500°W)
Time: 02:02:25
(UTC-03:00)
Language:

JY1SAT - Orbit

View from above orbital plane
View from above orbital plane
View from above satellite
View from above satellite

Ground track
Ground track

The orbit data is extracted from the following two-line orbital elements,

1 43803U 18099AX  21295.15463478  .00000848  00000-0  80469-4 0  9993
2 43803  97.6515   2.9772 0014683 353.0038   7.0976 14.96042844157435
Epoch (UTC): 22 October 2021 03:42:40
Eccentricity: 0.0014683
inclination: 97.6515°
perigee height: 569 km
apogee height: 589 km
right ascension of ascending node: 2.9772°
argument of perigee: 353.0038°
revolutions per day: 14.96042844
mean anomaly at epoch: 7.0976°
orbit number at epoch: 15743

The dashed part of the orbit path shows where the satellite is in the earth's shadow,  

DLR